#timestamp,LO_Frequency,Hit,StdDev 
1628107215.5,286046999.0,N
1628107235.3,286046998.8,N
1628107255.1,286047000.6,N
1628107275.9,286047001.2,N
1628107295.7,286046998.3,N
1628107315.5,286046999.0,N
1628107335.4,286046999.3,N
1628107355.2,286046999.6,N
1628107375.1,286046996.7,N
1628107376.0,286046996.7,N
1628107395.8,286046997.4,N
1628107415.6,286046997.7,N
1628107435.5,286046997.8,N
1628107455.3,286046994.9,Y
1628107475.1,286046995.2,P
1628107495.9,286046995.7,N
1628107515.7,286046993.5,P
1628107535.6,286046994.5,N
1628107555.4,286046994.1,N
1628107575.2,286046994.7,N
1628107595.1,286046994.4,Y
1628107596.0,286046994.4,P
1628107615.8,286046996.6,P
1628107635.7,286046996.6,P
1628107655.5,286046997.1,Y
1628107675.3,286047000.2,P
1628107695.2,286046999.8,N
1628107715.0,286047000.4,N
1628107715.9,286047000.4,N
1628107735.8,286046998.1,N
1628107755.6,286046999.3,N
1628107775.4,286046998.1,N
1628107795.3,286047002.5,N
1628107815.1,286047002.7,N
1628107835.9,286047002.5,N
1628107855.7,286047002.1,N
1628107875.5,286047004.1,N
1628107895.4,286047003.9,N
1628107915.2,286047004.2,N
1628107935.0,286047002.1,N
1628107935.9,286047002.1,N
1628107955.8,286047001.9,N
1628107975.6,286047002.6,N
1628107995.5,286047002.3,N
1628108015.3,286047000.1,N
1628108035.1,286046998.4,N
1628108055.9,286046998.6,N
1628108075.7,286047000.0,N
1628108095.5,286047002.8,N
1628108115.4,286047001.0,N
1628108135.2,286047001.0,N
1628108155.1,286047000.2,N
1628108156.0,286047000.2,N
1628108175.8,286046999.9,N
1628108195.6,286046999.9,N
1628108215.5,286046999.9,N
1628108235.3,286047000.4,N
1628108255.2,286046999.9,N
1628108275.9,286046999.8,N
1628108295.7,286047002.8,N
1628108315.6,286047002.7,N
1628108335.4,286046999.7,N
1628108355.3,286047002.2,N
1628108375.1,286047001.5,N
1628108376.0,286047001.5,N
1628108395.8,286047001.5,N
1628108415.7,286047001.8,N
1628108435.5,286047003.3,N
1628108455.3,286047002.9,N
1628108475.2,286047003.7,N
1628108495.0,286047003.0,N
1628108495.9,286047003.0,N
1628108515.8,286047003.6,N
1628108535.6,286047003.6,N
1628108555.4,286047004.0,N
1628108575.3,286047001.4,N
1628108595.1,286047003.2,N
1628108615.9,286047003.0,N
1628108635.7,286047006.0,Y
1628108655.5,286047003.8,P
1628108675.4,286047003.9,P
1628108695.2,286047001.4,N
1628108715.0,286047001.4,N
1628108716.0,286047001.4,N
1628108735.8,286047001.3,N
1628108755.6,286047004.0,Y
1628108775.5,286047002.7,P
1628108795.3,286047002.3,P
1628108815.1,286047002.4,P
1628108835.9,286047002.6,Y
1628108855.7,286047000.8,P
1628108875.6,286046996.9,P
1628108895.4,286046996.5,N
1628108915.2,286046998.7,N
1628108935.1,286046998.9,N
1628108936.0,286046998.9,N
1628108955.8,286046999.3,N
1628108975.6,286046998.7,N
1628108995.5,286046998.6,N
1628109015.3,286046998.7,N
1628109035.2,286046996.5,N
1628109055.9,286046999.3,N
1628109075.7,286046996.7,N
1628109095.6,286046996.7,N
1628109115.4,286046997.0,N
1628109135.3,286046996.7,N
1628109155.1,286046997.2,N
1628109156.0,286046997.2,N
1628109175.8,286046996.5,N
1628109195.7,286046997.3,N
1628109215.5,286046997.6,N
1628109235.3,286046996.5,N
1628109255.2,286046997.2,N
1628109275.0,286046997.0,N
1628109275.9,286046997.0,N
1628109295.8,286046999.3,N
1628109315.6,286046998.1,N
1628109335.4,286046998.9,N
1628109355.3,286046998.7,N
1628109375.1,286047001.0,N
1628109395.8,286046998.3,N
1628109415.7,286047000.8,N
1628109435.5,286047000.4,N
1628109455.4,286047000.8,N
1628109475.2,286047001.1,N
1628109495.0,286047000.9,N
1628109495.9,286047000.9,N
1628109515.8,286046998.6,N
1628109535.6,286046998.5,N
1628109555.4,286046997.0,N
1628109575.3,286046996.5,N
1628109595.1,286046999.4,N
1628109615.9,286046998.1,N
1628109635.7,286046998.4,N
1628109655.5,286046996.5,N
1628109675.4,286046999.0,N
1628109695.2,286046998.5,N
1628109715.0,286046998.7,N
1628109716.0,286046998.7,N
1628109735.8,286046998.6,N
1628109755.6,286047000.6,N
1628109775.5,286046998.8,N
1628109795.3,286046998.7,N
1628109815.1,286046998.9,N
1628109835.9,286047001.2,N
1628109855.7,286046998.4,N
1628109875.6,286046999.3,N
1628109895.4,286046998.8,N
1628109915.2,286046999.1,N
1628109935.1,286046996.6,N
1628109936.0,286046996.6,N
1628109955.8,286046996.6,N
1628109975.6,286046996.9,N
1628109995.5,286046997.0,N
1628110015.3,286046998.6,N
1628110035.1,286046999.2,N
1628110055.9,286046999.1,N
1628110075.7,286046999.0,N
1628110095.6,286046998.4,N
1628110115.4,286047000.4,N
1628110135.2,286047002.4,N
1628110155.1,286047001.9,N
1628110156.0,286047001.9,N
1628110175.8,286047003.2,N
1628110195.7,286047005.7,Y
1628110215.5,286047005.1,P
1628110235.3,286047005.6,N
1628110255.2,286047005.5,N
1628110275.9,286047005.1,N
1628110295.7,286047004.7,N
1628110315.6,286047005.8,N
1628110335.4,286047005.5,N
1628110355.3,286047003.0,N
1628110375.1,286047007.5,Y
1628110376.0,286047007.5,P
1628110395.8,286047002.6,N
1628110415.7,286047002.3,N
1628110435.5,286047001.7,N
1628110455.3,286047002.1,N
1628110475.2,286047002.2,N
1628110495.0,286047004.3,N
1628110495.9,286047004.3,N
1628110515.8,286047001.9,N
1628110535.6,286047001.8,N
1628110555.4,286047003.3,N
1628110575.3,286047003.0,N
1628110595.1,286047002.0,N
1628110615.8,286047002.5,N
1628110635.7,286047001.3,N
1628110655.5,286046999.7,N
1628110675.4,286047000.6,N
1628110695.2,286047000.7,N
1628110715.1,286046998.7,N
1628110716.0,286046998.7,N
1628110735.8,286046999.2,N
1628110755.6,286046999.6,N
1628110775.5,286046999.3,N
1628110795.3,286046999.4,N
